Home   Weather   Kapurthala   Past weeks

Flag for India Past Weather in Kapurthala, Punjab, India — Yesterday and Last 2 Weeks

Now
48 °F

Fog.


Feels Like: 48 °F
Forecast: 47 / 83 °F
Wind: No wind

Location: Amritsar Airport

Current Time: Feb 24, 2017 at 7:16:26 am

Latest Report: Feb 24, 2017 at 6:30 am


Visibility: 2 mi

Pressure: 30.04 "Hg

Humidity: 82%

Dew Point: 43 °F

Location of KapurthalaLocation

Past Weather in Kapurthala — Graph

°F

Kapurthala Temperature Yesterday

Maximum temperature yesterday: 73 °F (at 2:00 pm)
Minimum temperature yesterday: 46 °F (at 7:30 am)
Average temperature yesterday: 60 °F

High & Low Weather Summary for the Past Weeks

 TemperatureHumidityPressure
High82 °F (Feb 19, 1:00 pm)100% (Feb 9, 5:30 am)30.24 "Hg (Feb 9, 5:30 am)
Low41 °F (Feb 11, 7:30 am)27% (Feb 21, 5:30 pm)29.65 "Hg (Feb 20, 3:30 pm)
Average60 °F82%30.02 "Hg
* Reported Feb 9 5:30 am — Feb 24 6:00 am, Kapurthala, Weather by CustomWeather, © 2017

Note: Actual official high and low records may vary slightly from our data, if they occured in-between our weather recording intervals... More about our weather records

Advertising

Kapurthala Weather History for the Previous 24 Hours

Scroll right to see more
 ConditionsComfort  
Time TempWeatherWind HumidityBarometerVisibility
6:00 am
Fri, Feb 24
50 °FFog.2 mph76%30.04 "Hg2 mi
5:30 am48 °FFog.6 mph87%30.04 "Hg2 mi
5:00 am50 °FFog.7 mph82%30.04 "Hg2 mi
4:00 am50 °FFog.2 mph76%30.04 "Hg2 mi
3:30 am50 °FFog.2 mph82%30.04 "Hg2 mi
3:00 am50 °FFog.No wind82%30.04 "Hg2 mi
2:30 am54 °FFog.No wind72%30.04 "Hg2 mi
12:30 am52 °FFog.No wind82%30.07 "Hg2 mi
12:00 am52 °FFog.No wind82%30.07 "Hg2 mi
11:30 pm
Thu, Feb 23
52 °FFog.No wind88%30.07 "Hg2 mi
11:00 pm54 °FFog.No wind82%30.07 "Hg2 mi
10:30 pm55 °FHaze.No wind77%30.07 "Hg2 mi
10:00 pm57 °FHaze.No wind67%30.04 "Hg2 mi
9:30 pm57 °FHaze.No wind72%30.04 "Hg2 mi
9:00 pm57 °FHaze.2 mph67%30.04 "Hg2 mi
8:30 pm59 °FHaze.No wind63%30.04 "Hg2 mi
8:00 pm63 °FHaze.1 mph52%30.04 "Hg3 mi
7:30 pm63 °FHaze.1 mph52%30.01 "Hg3 mi
7:00 pm64 °FHaze.No wind52%30.01 "Hg3 mi
6:30 pm66 °FClear.2 mph49%30.01 "Hg4 mi
6:00 pm68 °FClear.6 mph43%30.01 "Hg4 mi
5:30 pm72 °FClear.7 mph38%30.01 "Hg4 mi
5:00 pm72 °FClear.8 mph38%30.01 "Hg4 mi
4:30 pm73 °FClear.9 mph33%30.01 "Hg4 mi
4:00 pm73 °FClear.10 mph31%30.01 "Hg4 mi
3:30 pm73 °FClear.12 mph29%30.01 "Hg4 mi
3:00 pm73 °FClear.13 mph31%30.01 "Hg4 mi
2:30 pm73 °FClear.12 mph36%30.01 "Hg4 mi
2:00 pm73 °FClear.13 mph33%30.04 "Hg4 mi
1:30 pm72 °FClear.13 mph33%30.04 "Hg4 mi
12:30 pm72 °FClear.13 mph31%30.04 "Hg4 mi
12:00 pm70 °FClear.13 mph35%30.04 "Hg4 mi
11:30 am68 °FHaze.10 mph40%30.04 "Hg3 mi
11:00 am68 °FHaze.9 mph38%30.04 "Hg3 mi
10:30 am66 °FHaze.8 mph43%30.04 "Hg3 mi
10:00 am63 °FHaze.5 mph45%30.04 "Hg3 mi
9:30 am59 °FFog.3 mph55%30.01 "Hg2 mi
8:30 am52 °FFog.No wind88%29.98 "Hg2 mi
8:00 am46 °FFog.No wind100%29.98 "Hg2 mi
7:30 am46 °FFog.1 mph87%29.98 "Hg2 mi
7:00 am48 °FFog.No wind87%29.95 "Hg2 mi
Weather by CustomWeather, © 2017

See weather overviewHow to use our weather pages